Content
SEND FEEDBACK

Daily
Averages
Monthly
Summary
United Kingdom

LONDON, ENGLAND


Home > Europe > United Kingdom > England
Elevation: 203 feet     Latitude: 51 09N     Longitude: 000 11W

WEATHER
 
SELECT A DAY
Number of Records: 294,488;   Date Range: 7/1/96 - 9/16/14
 
SHARE

PRINT THIS DATA

[ ← Previous Day ]
WEATHER ALMANAC - MAY 4, 2013
[ Next Day → ]
[ °C ]   °F
Weather ElementAverageHighLow
Temperature52.2 °F60.8 °F (5:50 pm)44.6 °F (3:20 am)
Dewpoint41.4 °F48.2 °F (11:50 am)32 °F (8:50 pm)
Humidity68.3 %88 % (11:50 am)41 % (6:50 pm)
Barometer30.06 in30.15 in (11:20 pm)30.01 in (2:20 pm)
Wind Speed10.5 mph18.4 mph (2:50 pm)
Wind Gust28.8 mph (10:50 am)
Weather ElementAverage
Visibility6.1 mi
Wind DirectionWSW (233.8 °)

Weather ElementTotal
Precipitation---
Heating Degree Days12.3 (Base 65)
Growing Degree Days2.7 (Base 50)
Averaged from 47 records on May 4, 2013
WEATHER CONDITIONS BREAKOUT
WIND DIRECTION BREAKOUT
WEATHER BY HOUR - MAY 4, 2013
[ °C ]   °F
Local TimeTemperatureDewpointHumidityBarometerVisibilityWind DirectionWind SpeedGust SpeedPrecipitationEventsConditions
12:50 AM48.2 °F39.2 °F71 %30.06 inWSW (250°)6.9 mphClear
1:20 AM48.2 °F39.2 °F71 %30.06 inSW (220°)4.6 mphClear
1:50 AM46.4 °F39.2 °F76 %30.06 inSW (220°)4.6 mphClear
2:20 AM46.4 °F41.0 °F81 %30.06 inSW (220°)4.6 mphClear
2:50 AM46.4 °F41.0 °F81 %30.06 inSW (220°)4.6 mphClear
3:20 AM44.6 °F41.0 °F87 %30.04 inSW (230°)5.8 mphClear
3:50 AM46.4 °F41.0 °F81 %30.04 inSW (220°)6.9 mphClear
4:20 AM44.6 °F39.2 °F81 %30.04 inSSW (210°)6.9 mphClear
4:50 AM44.6 °F39.2 °F81 %30.04 inSSW (200°)6.9 mphClear
5:20 AM44.6 °F39.2 °F81 %30.04 inSSW (210°)5.8 mphClear
5:50 AM44.6 °F39.2 °F81 %30.04 inSSW (210°)4.6 mphClear
6:20 AM44.6 °F41.0 °F87 %30.04 inSSW (210°)5.8 mphClear
6:50 AM46.4 °F42.8 °F87 %30.04 inSW (220°)8.1 mphClear
7:20 AM48.2 °F42.8 °F82 %30.06 inSW (220°)10.4 mphClear
7:50 AM50.0 °F44.6 °F82 %30.06 in6.2 miSW (230°)9.2 mphPartly Cloudy
8:20 AM51.8 °F44.6 °F76 %30.06 in6.2 miSW (230°)9.2 mphScattered Clouds
8:50 AM51.8 °F44.6 °F76 %30.06 in6.2 miSW (230°)11.5 mphScattered Clouds
9:20 AM53.6 °F44.6 °F72 %30.04 in6.2 miSW (230°)13.8 mphMostly Cloudy
9:50 AM55.4 °F44.6 °F67 %30.04 in6.2 miSW (230°)12.7 mphMostly Cloudy
10:20 AM55.4 °F44.6 °F67 %30.04 in6.2 miSW (220°)12.7 mphRainLight Rain
10:50 AM53.6 °F46.4 °F77 %30.06 in6.2 miSW (230°)17.3 mph28.8 mphMostly Cloudy
11:20 AM53.6 °F46.4 °F77 %30.06 in5.0 miSW (220°)15.0 mphRainLight Rain Showers
11:50 AM51.8 °F48.2 °F88 %30.06 in5.6 miSW (220°)12.7 mphMostly Cloudy
12:20 PM53.6 °F48.2 °F82 %30.04 in6.2 miSSW (210°)11.5 mphMostly Cloudy
12:50 PM53.6 °F48.2 °F82 %30.04 in6.2 miSSW (210°)15.0 mphMostly Cloudy
1:20 PM55.4 °F46.4 °F72 %30.04 in6.2 miSSW (210°)12.7 mphMostly Cloudy
1:50 PM57.2 °F48.2 °F72 %30.04 in6.2 miSW (220°)13.8 mphMostly Cloudy
2:20 PM57.2 °F46.4 °F67 %30.01 in6.2 miSW (220°)16.1 mphMostly Cloudy
2:50 PM57.2 °F46.4 °F67 %30.01 in6.2 miSW (220°)18.4 mphScattered Clouds
3:20 PM57.2 °F48.2 °F72 %30.01 in6.2 miSSW (210°)16.1 mphScattered Clouds
3:50 PM57.2 °F46.4 °F67 %30.01 in6.2 miSW (230°)17.3 mphScattered Clouds
4:20 PM57.2 °F46.4 °F67 %30.04 in6.2 miSW (230°)12.7 mphScattered Clouds
4:50 PM57.2 °F46.4 °F67 %30.04 in6.2 miSW (220°)11.5 mphScattered Clouds
5:20 PM59.0 °F37.4 °F45 %30.04 in6.2 miWest (280°)17.3 mphScattered Clouds
5:50 PM60.8 °F37.4 °F42 %30.04 in6.2 miWest (280°)17.3 mphPartly Cloudy
6:20 PM59.0 °F37.4 °F45 %30.04 in6.2 miWest (270°)16.1 mphPartly Cloudy
6:50 PM57.2 °F33.8 °F41 %30.06 in6.2 miWest (260°)13.8 mphPartly Cloudy
7:20 PM55.4 °F33.8 °F44 %30.06 inWest (270°)15.0 mphClear
7:50 PM55.4 °F33.8 °F44 %30.06 inWest (270°)12.7 mphClear
8:20 PM53.6 °F35.6 °F51 %30.09 inWest (260°)9.2 mphClear
8:50 PM55.4 °F32.0 °F41 %30.09 inWest (270°)10.4 mphClear
9:20 PM53.6 °F32.0 °F44 %30.12 inWest (270°)6.9 mphClear
9:50 PM53.6 °F33.8 °F47 %30.12 inWSW (240°)4.6 mphClear
10:20 PM53.6 °F37.4 °F54 %30.12 inWest (280°)8.1 mphClear
10:50 PM51.8 °F37.4 °F58 %30.12 inWest (260°)5.8 mphClear
11:20 PM51.8 °F39.2 °F62 %30.15 inWest (260°)8.1 mphClear
11:50 PM50.0 °F39.2 °F66 %30.15 inWSW (240°)4.6 mphClear
Hourly data recorded from EGKK, located miles away from London, England







STORIES FROM OUR PARTNERS